Theta_e
326 329 329 325 323 324 319 317 303 307 308 299 299 301 298 304 304 304 303 304 302 305 306 306 306 304 304 304 305 306 307 304 305 300 300 315 326 330 335 340 337 338 344 346 349 352 354 350 352 354 355 355 354 354 353 353 353 352 352 351 351 350 350 350 350 350 350 349 348 347 347 347 347 347 348 348 348 348 348 348 349 348 348 348 348 348 348 347 347 346 344 343 340 338 336 335 336
324 327 325 327 323 321 314 310 306 301 302 298 298 301 301 303 303 302 302 304 304 305 305 306 307 305 304 305 306 306 307 308 309 308 312 315 322 325 328 340 338 337 343 346 349 350 351 354 349 353 355 355 354 354 353 353 352 352 352 351 351 350 350 350 350 350 349 348 348 347 346 347 346 346 346 347 347 347 347 347 348 348 349 348 347 348 347 346 346 345 343 342 339 337 335 334 335
324 323 325 322 321 319 315 310 301 300 297 294 297 300 302 301 302 303 304 305 305 305 304 305 305 305 306 305 305 305 303 309 308 309 311 320 317 324 331 335 340 342 342 346 349 350 351 351 347 353 354 355 355 354 353 353 352 352 352 351 351 350 350 350 350 349 349 348 348 347 347 347 346 346 346 346 346 346 346 346 346 347 348 347 347 347 346 346 345 343 341 339 337 335 334 333 334
326 324 320 321 314 316 309 306 304 299 297 297 297 301 302 302 302 304 304 305 305 304 305 306 306 307 306 304 306 307 308 308 310 311 314 319 321 327 329 333 341 341 344 347 349 349 351 349 345 352 354 355 355 354 353 353 352 352 352 351 351 350 350 350 350 349 349 348 348 347 346 346 346 346 346 346 346 346 345 345 347 347 347 347 346 345 345 344 344 342 340 338 336 332 330 332 333
327 322 323 319 318 308 309 304 301 301 295 297 296 301 302 303 303 304 305 305 305 304 306 306 306 307 307 306 307 306 306 310 310 311 314 324 328 329 331 339 341 340 342 347 349 349 351 344 345 349 354 355 355 354 354 352 352 351 351 351 350 350 350 350 349 349 349 348 347 347 346 346 347 346 346 345 345 345 345 345 346 347 346 346 345 344 343 343 342 342 340 338 336 332 329 330 332
325 322 323 322 311 312 308 302 300 299 300 301 298 300 302 303 303 303 305 306 305 305 305 306 305 305 306 307 309 308 310 307 310 316 317 325 327 330 336 341 340 339 342 346 349 349 350 341 345 347 354 354 355 354 353 352 352 351 351 351 350 350 350 350 349 349 349 348 347 347 346 347 347 347 345 345 345 345 344 344 345 346 345 345 343 343 341 342 341 341 339 337 334 331 328 328 331
318 319 318 316 312 313 304 300 299 299 300 300 301 302 303 303 303 302 305 305 305 305 304 306 305 305 304 306 307 309 310 310 313 315 321 325 331 334 338 340 342 340 343 346 349 349 351 341 346 350 352 352 354 354 354 353 353 352 352 351 351 350 350 350 350 350 349 348 346 348 346 347 346 346 345 345 344 345 344 345 345 346 345 343 342 342 342 341 339 338 338 333 330 329 327 328 329
319 317 314 310 306 309 302 301 300 302 299 301 302 302 303 303 302 303 304 305 303 304 305 305 304 304 303 305 304 309 310 311 311 325 330 331 334 335 338 339 341 339 342 346 349 350 345 339 345 347 349 353 353 353 353 353 353 352 352 351 351 350 350 350 349 349 348 348 346 347 347 347 347 346 345 345 345 344 344 345 345 345 343 342 341 340 340 343 342 341 336 332 329 327 326 327 328
318 315 312 313 304 305 301 300 300 301 302 301 303 304 306 305 304 303 304 304 304 304 304 306 305 302 303 305 306 310 312 317 317 329 329 332 332 335 338 340 339 340 342 343 346 349 350 339 342 346 347 350 352 352 353 353 353 351 351 350 350 350 350 350 349 349 348 347 347 347 347 347 346 346 345 345 345 345 345 344 345 344 343 342 341 341 339 340 342 339 336 333 329 326 325 326 328
315 314 308 308 307 300 300 299 300 301 302 303 302 303 303 303 303 302 304 303 303 303 303 303 304 303 304 303 306 309 311 313 321 324 324 329 332 334 335 336 339 340 340 342 344 345 346 343 338 341 344 348 351 351 352 353 352 351 351 350 350 351 350 349 349 349 349 347 347 346 347 346 346 346 346 345 345 345 344 344 344 343 342 342 341 340 339 339 340 339 336 333 329 326 324 326 327
309 311 310 306 301 299 298 299 300 300 301 303 303 303 303 303 302 302 303 303 302 303 304 303 305 304 304 304 307 311 311 311 314 316 321 326 335 334 335 335 336 339 339 341 343 344 345 347 337 337 341 342 346 350 350 351 352 351 351 350 349 349 350 349 348 348 348 347 347 347 347 346 346 346 346 345 344 344 344 344 344 343 342 342 340 339 337 339 339 338 335 333 330 325 324 325 326
305 307 309 302 300 299 299 299 300 301 302 302 302 302 303 303 302 302 303 302 303 303 304 304 303 305 303 303 306 309 311 310 314 318 323 328 331 334 336 336 336 336 339 340 341 342 344 346 348 340 335 337 342 345 347 348 349 351 351 350 349 349 349 348 349 348 349 348 347 347 346 346 345 345 344 344 343 343 343 343 343 342 342 341 339 339 339 340 339 337 334 332 329 326 325 324 324
310 308 303 301 300 300 300 299 300 301 301 301 302 302 301 301 302 304 304 303 302 303 304 305 305 305 302 304 308 309 308 308 312 320 323 329 330 331 333 334 333 334 336 339 339 340 342 343 345 347 344 332 335 338 342 343 345 348 349 349 348 348 348 348 349 350 349 349 349 348 347 346 345 345 344 344 343 342 342 342 342 341 342 340 340 339 339 340 338 335 333 331 328 326 325 324 324
310 310 305 299 298 300 300 300 300 299 300 302 302 301 301 302 303 303 305 304 303 303 305 306 305 306 303 305 305 307 307 307 309 318 324 327 331 331 331 332 333 333 334 337 337 338 339 340 342 344 347 347 349 342 335 338 342 345 345 346 345 346 346 348 348 347 347 346 345 344 343 342 344 345 344 342 343 342 342 341 342 342 341 341 339 339 339 338 336 334 332 330 328 326 324 323 322
310 307 305 303 299 300 299 298 299 300 299 302 301 301 302 303 302 302 304 303 303 304 305 305 306 303 301 303 305 306 304 305 308 315 321 324 325 322 323 328 326 328 331 333 335 336 337 339 341 342 344 345 347 347 350 347 335 340 342 341 342 343 344 344 344 343 342 343 341 339 337 336 336 337 339 341 341 339 338 340 342 342 340 339 339 338 338 337 335 333 332 330 327 325 324 322 320
311 308 305 300 298 299 299 299 297 301 299 302 301 299 301 303 302 303 304 303 305 306 305 304 304 303 304 304 303 303 304 305 307 312 316 316 321 319 317 315 319 318 320 321 328 331 333 337 339 341 342 343 345 345 347 348 338 332 337 338 338 340 340 341 340 338 335 334 333 331 328 335 332 339 329 340 335 338 336 337 338 340 340 338 339 339 338 336 334 333 332 329 326 324 322 319 318
308 310 299 298 297 297 299 300 300 298 301 303 302 302 302 302 302 303 302 303 303 304 305 305 304 305 302 302 302 303 304 306 309 310 312 311 312 313 313 313 314 314 315 315 315 317 323 330 336 338 341 343 344 344 346 347 348 331 333 332 334 336 337 337 337 331 325 322 327 322 327 350 347 347 345 345 329 346 331 330 335 340 341 340 340 339 337 336 334 333 331 328 323 319 317 314 314
309 302 299 297 298 298 302 302 302 302 302 302 302 301 303 302 305 304 303 303 302 304 305 303 303 303 303 302 304 304 305 306 307 308 308 309 310 309 310 310 311 311 313 313 314 314 316 323 329 336 339 341 343 344 344 345 347 340 349 349 349 342 334 332 341 349 338 348 325 338 347 344 344 345 344 339 343 343 337 325 330 336 339 335 338 338 336 335 334 333 330 327 323 318 315 320 314
304 300 300 297 299 301 302 303 303 302 302 303 301 300 301 303 303 304 303 303 303 304 305 304 301 301 304 304 303 304 305 305 306 305 305 305 306 306 307 309 309 310 311 312 314 313 314 315 321 328 336 339 341 342 344 345 345 346 347 347 348 338 343 346 347 347 348 347 345 345 343 345 346 344 344 339 341 330 342 323 328 332 335 332 336 336 336 335 334 333 331 327 322 317 324 319 314
304 304 299 299 302 301 301 303 303 302 303 302 302 301 300 303 302 304 302 303 303 302 303 303 303 303 303 302 303 303 304 304 305 304 304 304 305 305 305 306 308 309 310 311 312 314 314 315 315 318 327 336 339 341 343 343 345 344 345 345 344 347 348 347 348 347 347 347 347 344 343 345 345 344 327 323 333 342 339 325 325 326 329 328 330 333 333 334 333 333 330 325 323 323 326 321 316
304 303 300 301 300 301 302 302 303 302 301 303 302 301 301 303 302 302 303 301 303 302 304 303 303 302 302 302 301 302 303 303 303 303 303 304 304 305 305 305 306 307 310 311 314 313 314 315 316 317 321 329 337 338 340 342 343 345 344 343 344 344 344 345 343 345 345 346 347 345 344 344 344 342 342 341 340 340 341 340 336 337 336 336 328 337 336 335 333 335 331 327 330 328 325 322 319
306 302 302 302 300 302 303 303 301 301 299 301 300 301 302 302 301 302 303 300 302 302 301 301 302 301 300 300 300 301 301 301 301 302 302 302 303 303 305 306 307 309 310 312 312 313 314 316 317 317 318 326 334 337 340 341 342 342 342 342 342 342 345 343 344 345 343 345 346 344 344 344 343 342 341 340 339 338 338 338 338 337 336 335 336 335 335 335 335 334 333 331 329 328 325 321 317
302 301 301 302 303 302 303 302 300 300 301 301 301 302 302 301 302 303 302 302 300 298 300 300 300 300 299 300 301 300 300 300 300 300 300 301 301 302 303 305 306 307 309 311 312 312 314 317 318 319 318 324 333 338 339 340 343 343 343 344 342 340 341 342 343 344 342 342 343 344 343 342 341 340 340 340 339 339 337 337 336 336 337 335 333 334 334 335 333 331 331 331 328 326 322 318 314
302 301 301 302 301 302 302 303 299 300 301 301 302 300 300 300 299 300 300 300 299 299 299 299 299 299 300 300 300 299 299 299 299 299 300 300 301 301 303 303 305 307 310 309 310 311 315 315 316 319 319 322 334 337 337 339 341 341 344 343 341 341 340 339 341 340 341 343 342 341 338 339 340 338 339 339 340 339 338 339 338 337 336 336 334 334 332 330 329 329 330 330 327 325 322 318 316
302 301 301 301 299 302 302 301 300 300 301 301 299 299 300 301 301 299 300 299 299 298 299 298 299 300 300 299 298 299 299 299 299 300 301 302 302 302 304 305 305 307 307 308 309 311 313 313 318 320 319 322 333 335 336 338 339 340 341 339 342 337 339 339 342 340 339 340 342 339 338 338 338 339 339 338 339 338 339 339 339 337 336 335 332 331 331 330 328 327 327 328 327 325 323 322 319
301 301 301 300 300 301 301 299 299 299 299 298 298 298 301 300 299 299 300 298 298 298 298 298 299 299 298 298 297 298 298 298 299 299 299 301 302 302 303 304 305 305 305 307 308 310 311 313 319 321 321 327 333 334 337 339 339 337 338 339 340 334 336 338 338 336 334 335 336 338 337 337 337 337 337 340 338 337 338 337 337 336 334 335 334 333 332 330 328 326 326 325 324 324 324 324 322
300 300 300 300 301 299 300 299 300 298 299 298 299 300 299 298 298 299 297 298 298 298 297 298 298 297 297 297 297 297 297 297 297 299 300 301 301 301 302 303 303 304 305 305 307 309 310 313 319 323 325 329 333 333 336 337 336 332 334 332 329 328 327 327 328 327 328 327 328 331 333 333 333 336 335 336 338 337 337 336 334 333 334 334 334 333 331 330 327 325 324 324 324 325 325 323 321
299 298 299 300 300 300 300 298 298 299 299 298 299 299 298 297 297 299 296 298 299 298 297 297 297 296 296 296 296 297 297 297 298 299 298 298 299 299 300 301 301 302 303 304 305 307 310 313 319 322 326 330 333 333 334 327 325 324 324 324 323 323 322 322 321 321 321 322 323 325 327 330 331 330 329 327 326 328 330 330 328 328 327 329 330 329 324 323 323 320 318 318 318 319 320 319 319
299 299 300 301 302 302 299 299 298 297 299 297 300 298 296 296 298 297 296 297 298 298 297 296 296 295 296 296 296 296 296 297 298 298 297 298 299 299 299 300 300 300 303 303 305 308 309 313 317 321 325 326 325 323 323 323 322 321 319 319 319 319 318 318 318 318 319 319 320 321 324 327 329 327 326 325 323 324 325 324 322 320 321 324 326 324 322 320 320 319 315 315 316 319 319 319 319
297 299 298 299 301 301 298 298 298 298 298 296 298 295 300 297 298 297 297 297 298 298 298 296 296 296 295 296 296 296 296 297 297 297 297 297 298 298 299 300 300 300 301 303 305 307 309 315 319 319 320 320 319 319 318 317 316 317 316 315 316 317 316 316 316 316 316 317 318 318 320 322 323 324 325 324 324 322 322 321 321 320 321 321 322 322 321 320 321 320 317 318 314 318 320 318 318
299 297 297 298 297 298 298 299 299 299 297 297 298 296 299 298 298 297 297 298 298 299 297 296 295 295 295 295 296 296 296 296 295 296 296 297 297 298 298 300 300 300 301 303 304 306 309 315 317 317 317 317 315 314 313 313 312 312 312 312 312 312 312 312 312 313 314 315 316 316 317 318 321 320 320 320 319 319 318 317 317 317 319 320 320 321 321 319 318 316 316 318 316 315 314 313 313
298 297 297 297 296 298 299 298 297 299 297 298 299 296 299 299 298 297 296 297 297 299 298 296 295 295 294 295 295 295 295 296 296 296 296 296 297 297 298 298 299 299 300 300 303 306 309 312 315 314 313 311 311 310 309 308 308 308 308 307 308 309 308 308 308 308 309 310 312 313 314 315 317 318 319 320 321 320 318 316 316 317 317 318 318 317 317 316 314 313 312 315 315 313 312 311 308
296 297 297 297 296 297 297 298 296 297 296 299 299 297 297 298 298 297 296 297 297 299 297 296 295 294 294 294 295 295 295 296 297 296 295 296 297 296 297 298 298 298 299 299 301 304 307 307 309 311 310 309 307 307 307 306 305 304 303 304 304 305 305 305 304 304 304 304 306 307 309 310 313 313 315 317 318 317 316 316 315 316 317 317 316 315 314 315 315 313 312 312 315 314 312 309 308
297 296 296 298 295 296 295 298 298 298 297 297 298 296 298 298 298 297 296 297 297 298 297 295 295 295 294 294 294 294 295 295 295 295 294 295 296 296 297 298 298 297 298 300 301 303 304 305 307 308 309 308 306 305 305 304 303 303 302 302 301 301 301 302 303 302 301 302 302 302 304 305 308 309 310 311 312 313 313 313 313 312 312 312 311 311 311 311 312 312 310 307 307 309 307 306 307
297 295 294 296 295 294 295 296 297 297 297 297 298 296 298 298 298 297 297 295 297 298 297 296 295 294 294 294 294 293 294 294 293 294 294 294 295 296 297 297 297 297 298 298 300 302 305 305 306 306 307 307 305 304 304 303 302 302 302 302 301 300 300 300 301 301 301 301 301 301 301 302 303 306 306 306 306 306 307 308 309 309 311 311 310 310 310 311 311 310 310 308 306 305 305 303 303
297 297 297 296 295 296 294 297 297 296 297 297 298 297 299 300 298 298 296 296 297 297 295 294 294 294 293 293 293 294 294 293 293 293 294 295 295 295 296 297 297 297 297 298 300 301 303 304 305 305 305 307 307 307 306 305 304 302 300 301 300 299 298 298 298 298 299 300 300 301 301 302 302 302 305 305 304 303 304 304 305 305 306 306 306 306 306 307 308 309 308 310 309 306 305 305 306
296 297 296 295 295 297 296 296 296 296 296 297 299 299 299 300 301 299 297 296 296 295 295 294 294 294 293 293 293 292 293 292 293 293 294 294 295 295 296 297 298 298 297 298 299 300 300 301 303 302 303 305 307 307 306 305 303 301 299 297 297 297 296 296 296 297 297 297 298 299 300 300 301 301 302 303 304 303 304 304 305 305 305 305 304 304 305 305 306 308 308 307 307 306 303 304 305
296 296 295 295 296 294 297 296 295 297 295 296 296 296 297 299 301 300 296 295 295 296 296 295 294 294 293 293 292 292 292 293 293 294 293 294 294 295 296 296 296 297 296 297 298 298 299 300 301 301 302 302 303 303 302 301 301 300 299 297 296 296 296 295 294 295 295 295 296 296 297 298 299 299 300 301 301 302 302 302 302 302 303 303 303 303 303 303 304 305 307 306 306 304 302 303 303
296 295 295 294 295 297 297 294 294 295 294 295 296 294 296 299 301 299 296 296 297 296 295 295 294 293 292 292 292 291 292 292 292 292 293 293 294 294 295 295 295 295 296 296 297 298 298 299 299 300 301 301 301 302 302 300 300 299 298 296 295 293 294 294 294 293 294 293 293 294 295 295 296 296 297 298 298 299 300 300 300 300 301 302 301 300 301 301 302 303 303 304 304 304 303 303 302
295 294 292 292 296 293 294 294 293 293 294 295 294 293 296 299 301 300 294 294 293 292 291 292 293 293 292 292 292 292 292 292 292 292 292 292 293 294 294 294 294 295 296 296 296 297 298 298 299 300 300 300 299 299 298 298 297 297 296 296 295 294 292 293 293 293 293 292 291 292 293 293 294 294 294 295 295 296 297 297 298 298 299 300 300 299 299 299 300 300 301 301 303 301 302 300 302
295 295 294 294 295 294 294 295 293 293 293 291 293 293 295 298 298 298 291 291 291 291 291 290 291 292 292 292 291 292 292 292 292 292 292 292 293 292 292 292 294 294 294 294 295 295 296 298 298 299 299 299 299 298 298 297 296 296 295 295 295 294 294 293 292 290 290 290 290 291 291 292 292 292 293 293 293 293 294 294 295 295 296 297 297 297 296 297 298 299 299 299 300 300 299 299 300
294 295 295 296 296 295 294 293 293 293 294 294 294 290 293 298 296 297 294 291 290 290 290 291 291 290 290 290 291 291 291 291 292 292 291 291 291 292 292 292 293 293 292 292 293 295 296 297 298 298 298 298 298 299 300 300 298 297 296 295 293 292 290 290 288 288 288 288 288 290 291 291 291 291 292 292 292 292 292 293 293 293 293 293 293 293 293 293 294 295 296 297 298 299 298 296 296
292 294 296 295 295 295 294 292 292 290 289 292 291 290 289 296 295 296 293 292 292 289 290 291 290 290 290 291 291 291 290 290 290 290 291 291 291 291 291 291 292 291 291 292 293 294 295 296 296 297 297 297 297 297 297 297 296 295 294 293 292 290 288 288 289 289 289 289 290 289 289 290 291 290 290 291 291 291 291 291 292 291 291 291 292 292 291 291 292 293 293 294 294 296 296 293 294
292 295 294 296 294 293 293 293 293 293 293 292 289 292 288 289 296 297 293 292 292 291 290 290 290 290 290 291 291 291 291 291 291 291 290 290 290 291 290 290 290 290 290 291 292 292 293 294 294 294 294 294 295 295 295 295 293 292 292 291 290 289 288 287 288 289 290 289 289 289 289 289 289 290 289 290 290 290 290 290 291 290 290 290 290 290 290 291 291 292 292 292 292 292 293 291 291
295 291 294 294 294 294 295 294 293 293 290 289 290 293 287 288 294 292 292 292 294 292 291 290 291 290 290 291 291 291 291 291 291 291 290 290 290 289 289 289 289 289 290 290 290 291 292 292 292 292 292 292 292 293 293 293 292 292 291 290 289 289 289 289 289 289 289 289 288 288 288 288 288 289 289 289 289 290 289 289 290 289 289 289 289 289 289 290 290 290 290 290 291 290 291 291 290
293 292 293 293 293 293 294 293 292 290 288 285 290 291 287 288 295 295 292 291 293 296 293 291 291 291 291 290 291 291 291 290 290 290 290 289 289 288 288 288 288 288 288 289 290 291 291 291 291 290 290 290 291 291 291 291 291 291 290 290 289 288 289 289 289 288 288 289 288 288 288 288 288 288 288 289 288 289 289 289 289 289 288 288 288 288 289 289 289 289 289 289 289 289 289 289 288
294 295 295 293 293 292 291 292 291 289 283 286 292 292 291 286 293 295 295 296 297 295 292 293 293 291 291 291 291 291 290 290 290 289 289 289 288 288 287 288 287 288 288 289 289 290 290 290 290 289 289 289 290 290 290 290 291 291 290 290 290 289 289 289 288 288 288 288 287 287 287 287 288 287 287 288 288 288 288 288 288 288 288 287 287 287 287 287 288 288 288 288 288 288 288 289 288
295 294 293 293 291 291 290 288 289 284 284 287 288 290 292 284 290 296 298 292 294 296 294 292 291 290 291 291 291 291 290 290 289 289 288 288 287 287 287 287 287 287 287 288 289 289 290 290 289 288 288 289 289 289 290 290 290 290 291 290 290 290 290 289 288 288 288 287 287 287 287 287 287 287 287 287 286 287 287 287 287 287 286 287 286 287 287 287 287 287 288 287 287 287 287 287 287
293 294 293 289 288 286 283 285 282 282 284 285 286 287 286 286 294 297 296 295 294 293 294 294 292 291 291 291 291 291 290 290 289 289 288 288 288 287 287 287 287 287 287 287 288 289 289 289 289 288 287 288 289 289 289 289 290 289 290 290 289 289 289 289 288 288 288 288 288 287 287 286 287 286 286 285 286 286 286 286 285 285 286 286 286 286 286 286 287 287 286 287 286 286 286 286 285
291 292 290 288 285 282 280 283 284 283 285 285 286 289 285 291 293 297 298 294 292 291 291 291 293 292 291 291 291 290 290 290 289 289 288 288 288 288 287 287 287 287 287 287 287 288 288 288 288 288 287 288 289 289 289 289 289 289 289 289 289 289 289 289 288 288 288 288 288 287 287 286 286 285 285 285 285 286 286 286 286 285 286 286 286 286 286 286 286 286 286 286 286 285 286 286 285
292 297 294 291 289 284 280 283 281 283 284 283 285 284 285 285 291 288 289 288 289 289 288 290 291 293 292 292 291 290 289 289 289 288 288 288 288 288 287 287 287 287 286 286 287 287 288 288 288 287 287 288 288 289 289 288 288 288 289 289 289 289 288 288 288 288 288 287 287 287 286 286 286 285 285 285 286 285 285 285 285 285 285 285 285 285 286 286 286 286 285 285 285 285 285 285 285
293 294 295 290 290 292 286 284 285 282 284 281 281 285 291 292 290 290 288 289 289 289 288 289 290 290 291 290 289 289 289 289 289 288 288 288 288 288 287 287 287 286 286 286 286 287 288 288 288 288 287 288 288 288 288 288 288 288 288 288 288 288 288 288 287 287 287 287 287 286 286 286 286 285 285 285 285 285 285 285 285 284 284 284 284 284 284 284 284 285 284 284 284 285 284 284 284
291 291 287 291 293 291 284 281 280 280 283 283 287 286 289 294 292 289 289 288 290 288 289 289 289 289 290 289 290 290 289 289 289 289 288 288 287 287 287 287 286 286 286 286 286 287 288 287 287 287 287 288 288 288 288 288 288 288 288 288 288 288 288 287 287 287 287 287 287 286 285 285 285 285 285 285 284 284 284 284 284 284 284 284 284 283 283 283 284 284 283 283 283 283 283 283 283
290 286 291 291 294 295 290 285 283 283 282 284 286 285 288 287 287 290 290 289 290 290 289 289 289 288 288 290 290 290 290 290 289 289 289 288 288 287 287 287 287 286 286 286 286 287 288 288 287 287 286 286 287 287 287 287 287 287 287 287 287 287 287 287 287 286 286 286 286 285 285 285 284 284 284 284 284 284 283 283 283 283 283 283 283 283 283 283 283 284 283 283 283 283 283 283 283
293 292 299 291 286 284 289 287 280 279 279 282 284 286 288 290 291 290 291 290 291 291 289 286 287 287 288 290 291 291 291 289 288 288 288 288 288 287 287 286 287 286 286 286 286 287 287 287 287 287 286 287 286 287 287 287 287 287 287 286 286 286 286 286 286 286 286 286 285 285 285 284 285 285 284 284 284 284 283 283 283 283 283 283 283 283 282 283 283 283 282 283 283 282 282 282 283
292 293 292 294 291 290 285 287 286 287 283 281 282 282 284 290 294 294 295 294 295 292 288 287 289 289 289 290 291 290 289 289 289 289 289 288 288 288 287 286 286 286 286 286 286 286 286 287 287 287 287 286 286 286 286 286 287 286 286 286 286 286 286 286 286 286 285 285 285 285 285 284 284 284 284 284 284 283 283 283 282 282 282 282 282 282 282 282 282 282 281 281 281 281 280 280 281
288 290 290 290 289 291 292 289 287 286 283 282 283 282 286 292 296 296 296 296 296 293 290 290 290 290 290 291 291 291 290 289 290 290 289 289 288 287 287 287 286 286 286 286 286 286 286 286 286 286 286 285 286 286 286 286 286 286 285 285 285 285 285 285 285 286 285 285 285 285 284 284 284 283 283 283 282 282 282 282 281 281 281 281 281 280 281 281 280 280 280 280 280 279 279 279 280
291 291 289 291 288 286 283 283 288 285 285 283 282 281 288 293 288 293 294 293 294 294 293 292 291 291 291 291 291 292 290 290 291 290 289 288 288 288 287 287 287 286 286 285 286 286 286 286 286 286 286 286 286 286 286 286 286 285 285 285 284 285 285 285 285 285 284 284 284 284 284 283 282 282 282 281 281 281 281 280 280 280 280 280 279 280 279 279 279 278 279 279 279 278 278 278 279
Wind_Speed
4 3 2 2 3 2 3 3 3 2 3 4 4 1 5 1 2 3 2 3 2 3 1 1 2 2 3 5 6 3 4 6 6 6 6 3 2 3 0 3 0 2 7 9 10 11 11 6 5 9 9 10 11 11 11 12 12 12 12 12 12 10 10 10 9 9 8 9 8 8 8 8 8 8 8 8 8 8 8 8 9 9 11 10 11 12 13 13 14 14 14 13 13 13 13 12 12
2 2 2 3 1 2 2 2 0 3 3 5 5 1 5 0 4 3 6 4 5 3 2 3 1 2 3 4 4 4 2 2 6 5 3 2 2 4 1 3 1 4 7 9 10 12 11 10 4 8 9 10 10 10 11 12 12 12 11 11 11 11 10 9 9 9 8 9 8 8 7 7 7 7 7 8 7 8 8 8 8 8 10 10 10 12 12 13 14 13 13 12 12 12 11 11 11
2 3 3 3 1 2 3 2 3 2 4 5 4 2 1 3 3 3 3 3 3 3 2 1 0 3 3 5 2 4 7 1 2 1 2 1 3 5 4 3 0 1 7 8 10 12 10 11 6 9 10 11 10 10 11 12 12 12 11 11 10 10 10 9 8 9 8 8 8 8 7 7 7 7 7 7 7 7 7 7 7 8 9 10 11 11 12 12 12 13 13 12 12 11 11 10 10
2 2 3 1 1 2 1 1 1 3 3 4 5 3 1 2 4 3 2 4 3 3 1 3 2 2 4 2 4 4 5 3 4 4 2 4 5 6 4 2 1 2 6 7 9 11 11 10 7 9 9 10 12 11 11 11 12 12 11 11 10 10 9 9 8 8 8 8 8 7 7 6 7 8 8 7 6 6 6 7 8 8 10 10 10 11 11 11 12 13 12 12 11 11 11 10 10
2 1 3 2 2 2 1 2 1 2 4 2 4 3 2 1 2 3 3 2 1 2 2 1 2 2 2 2 2 3 6 1 5 2 2 2 3 5 2 2 2 4 6 8 9 10 9 9 7 9 9 10 12 12 12 12 11 12 11 10 10 10 9 9 8 7 8 9 9 7 7 7 7 7 8 7 5 5 5 6 7 8 9 9 10 10 10 10 11 13 12 11 11 11 10 10 9
2 2 3 2 1 2 2 4 4 3 5 2 5 4 1 1 1 4 3 1 2 1 1 1 4 2 3 3 2 3 6 3 6 2 4 4 8 5 1 2 1 5 6 8 8 9 9 7 5 6 9 9 11 12 11 13 12 12 12 11 10 10 9 9 8 8 8 8 9 8 8 8 8 8 7 7 6 6 5 5 6 8 7 6 8 9 9 11 12 11 10 11 11 11 10 10 9
2 2 1 3 4 2 1 2 5 5 4 3 4 4 2 3 2 3 1 4 1 1 1 2 1 3 3 2 2 1 4 4 4 5 5 9 7 2 2 0 1 4 5 5 6 7 8 7 3 2 5 7 8 9 10 11 12 12 11 11 10 9 9 9 9 8 9 8 9 9 8 9 9 8 8 7 6 6 5 6 6 7 6 6 7 8 7 8 8 8 10 11 11 10 10 9 9
2 3 2 2 3 2 3 3 5 1 4 2 3 2 2 2 2 2 2 3 4 1 2 0 2 2 5 2 2 3 5 4 6 6 7 5 4 2 2 1 2 4 4 3 4 5 8 5 3 3 2 4 6 7 8 9 10 10 10 11 10 9 9 8 8 8 6 8 7 9 8 9 8 8 8 7 6 6 5 6 6 6 7 8 9 9 10 11 10 10 10 11 10 10 9 9 9
3 1 1 2 3 1 3 3 3 2 1 2 2 4 5 3 3 3 1 2 1 1 3 2 2 4 4 1 4 4 6 11 5 5 8 7 6 2 1 3 2 3 3 2 3 5 7 5 3 3 3 2 6 7 7 8 9 9 10 9 10 9 8 7 7 8 7 7 7 8 7 7 7 8 8 7 6 6 5 6 7 6 7 7 8 9 8 9 10 9 9 10 10 9 9 9 9
2 3 2 1 1 2 2 4 4 3 1 2 2 0 0 1 1 3 1 3 3 2 3 3 2 5 1 5 6 5 6 9 4 5 10 8 5 3 3 4 4 2 2 3 3 5 6 6 2 3 3 2 4 7 8 8 9 10 9 10 10 9 8 7 6 9 8 6 7 6 6 7 7 7 8 6 6 6 6 6 7 7 6 7 9 9 8 8 7 8 9 10 9 9 9 9 9
1 3 2 3 3 3 4 5 2 4 2 0 3 3 3 2 3 1 2 3 1 2 2 2 3 4 2 4 5 2 2 7 12 10 9 7 4 4 2 4 4 2 2 3 3 4 5 7 3 2 3 3 3 5 7 7 9 10 10 9 9 8 7 8 7 6 7 6 5 7 6 6 6 7 6 6 4 5 6 6 6 6 7 8 9 9 6 8 8 9 9 9 9 9 8 9 9
1 1 2 2 3 2 3 3 4 3 1 2 4 1 1 2 2 2 2 1 1 1 2 2 3 1 1 3 4 3 4 13 12 8 7 4 4 4 3 4 5 4 2 2 3 3 3 5 6 5 1 1 2 2 6 7 6 7 8 8 8 7 5 6 7 6 6 4 3 3 5 5 6 5 4 5 4 4 4 5 4 5 6 7 7 8 10 12 10 10 10 9 9 9 8 8 8
2 1 2 3 1 2 3 2 4 2 4 4 4 3 0 3 2 1 1 1 1 2 3 1 1 2 0 2 3 2 8 12 12 9 6 4 4 4 4 4 5 6 4 3 2 2 2 3 6 7 7 2 1 1 2 6 7 5 5 7 7 6 6 7 6 6 5 6 4 3 4 2 2 5 5 5 5 3 4 3 4 3 6 7 9 10 11 11 10 10 10 9 9 9 9 9 8
1 1 1 2 1 1 3 1 2 5 4 5 0 1 2 2 1 2 2 2 2 3 3 2 1 3 1 2 5 2 6 12 13 10 5 4 4 6 7 5 6 7 6 5 3 1 1 2 3 6 6 7 9 4 2 3 6 6 4 5 7 7 6 6 5 5 5 5 5 5 5 4 5 5 4 3 4 3 1 3 4 4 6 8 10 12 12 11 11 11 10 9 9 9 9 8 8
1 1 2 3 3 2 1 4 5 6 4 3 3 2 1 2 1 1 3 3 3 4 2 2 3 5 3 5 3 4 9 14 12 8 3 4 5 7 7 6 7 7 6 6 4 3 2 2 3 4 5 8 10 9 9 6 4 7 6 5 5 6 6 6 6 5 5 5 6 6 6 6 6 7 7 7 6 4 2 6 4 3 4 9 11 12 12 12 11 10 10 10 9 9 8 9 8
2 2 1 2 4 4 4 2 1 4 4 2 3 2 3 5 2 2 2 3 3 2 3 2 1 4 3 3 5 9 11 11 10 7 1 5 4 4 5 6 5 6 5 6 5 5 6 3 3 3 4 6 8 8 9 9 6 4 8 6 5 6 5 5 5 5 5 6 6 6 7 6 6 5 8 6 6 5 2 3 7 5 3 8 10 12 13 12 11 10 10 9 8 7 8 8 8
0 2 3 1 4 5 4 3 6 4 6 2 1 1 2 1 5 1 1 1 4 2 2 4 2 3 5 4 6 7 8 8 7 2 4 5 2 3 4 5 4 4 3 5 5 5 4 5 4 4 4 6 7 7 7 8 6 7 4 9 8 6 5 5 5 5 6 5 5 5 6 4 4 4 6 4 7 5 6 5 5 5 5 6 9 12 13 12 11 11 9 8 7 6 6 7 8
2 1 1 2 2 4 4 4 3 2 4 5 2 2 2 2 0 3 2 3 3 3 2 6 8 8 6 4 3 4 6 8 9 8 7 5 5 4 4 5 5 5 5 4 5 6 4 3 6 4 4 6 6 5 5 6 6 5 8 8 9 8 6 6 5 6 5 5 6 5 5 5 5 5 4 4 5 5 6 4 5 8 5 5 7 12 13 13 12 11 9 8 6 5 2 1 3
1 2 2 1 2 3 1 2 4 2 5 2 2 1 2 2 3 2 4 4 1 3 3 7 7 6 7 7 7 7 7 9 10 10 10 10 7 8 6 5 5 6 6 5 4 6 5 4 3 4 5 5 6 6 5 5 7 7 9 8 5 7 7 6 7 6 6 5 5 6 5 4 4 5 3 1 1 2 3 7 3 6 10 5 9 11 12 12 12 10 9 8 7 5 2 2 2
2 3 1 2 2 2 2 1 2 0 2 2 3 3 3 2 1 2 4 6 3 1 3 7 5 6 5 5 7 6 7 9 10 10 10 10 8 7 7 7 6 6 6 5 5 4 5 5 5 5 5 5 5 5 5 5 6 7 7 6 4 7 7 7 8 7 6 5 5 6 5 4 5 5 6 8 3 4 3 3 2 4 0 9 12 9 10 9 9 10 10 9 5 2 2 2 2
2 2 1 3 3 2 3 4 2 1 1 1 1 2 4 1 2 2 2 6 3 4 3 4 2 4 4 4 6 6 7 9 9 10 10 9 8 6 5 5 5 5 5 5 4 5 6 6 5 4 4 4 5 4 5 5 4 5 5 5 6 3 4 7 6 7 7 7 7 6 5 5 5 5 5 4 4 4 3 3 2 1 2 2 8 6 5 6 5 4 5 4 1 1 2 2 2
2 3 4 4 2 2 5 3 2 2 1 1 1 4 2 2 2 4 6 5 4 4 4 5 5 5 5 5 4 6 8 9 9 10 9 9 9 7 6 5 5 3 5 4 7 6 7 6 5 4 4 4 4 5 5 4 4 4 4 5 4 6 3 1 4 4 6 7 6 7 6 6 7 6 6 6 5 5 5 5 3 4 3 3 2 4 3 4 2 1 2 2 2 1 2 2 2
1 3 1 1 1 2 2 4 4 4 3 4 3 1 1 3 4 4 5 8 3 3 4 5 5 5 4 4 4 7 8 8 9 9 8 8 8 8 7 6 6 6 5 6 6 6 7 8 6 4 3 4 5 6 5 4 5 5 4 3 4 4 1 2 2 2 3 4 4 5 6 6 7 7 6 6 6 5 5 4 3 4 5 5 3 3 3 1 2 1 1 2 2 2 2 2 2
2 1 2 3 3 4 3 2 5 5 5 5 1 2 5 3 6 2 6 5 6 5 4 6 6 5 3 6 7 8 7 7 7 6 6 6 7 7 7 7 7 5 5 7 6 6 7 8 7 5 2 3 5 6 6 5 4 3 2 3 3 2 1 3 4 3 2 1 3 1 3 5 6 6 6 6 6 5 4 4 4 4 4 5 5 4 3 1 1 2 2 2 2 2 2 1 2
2 2 3 1 1 5 2 3 4 5 7 1 2 5 8 7 4 3 3 6 6 6 5 5 5 5 6 7 7 6 7 6 6 6 5 4 5 5 6 5 6 6 7 8 7 6 7 7 7 4 1 4 5 6 6 5 4 3 3 3 1 3 2 2 4 4 4 3 1 1 2 2 2 6 5 5 4 5 5 5 5 3 3 2 3 3 3 3 3 2 2 1 2 2 2 2 1
1 1 1 2 4 3 4 5 8 7 3 4 5 9 6 3 4 7 3 6 6 6 5 4 4 7 7 7 7 6 6 7 6 6 6 4 5 7 8 7 7 8 9 8 8 7 7 8 7 5 3 6 4 6 5 5 4 3 4 6 5 6 7 5 6 7 8 7 6 4 5 5 4 4 3 3 5 5 5 3 2 2 4 4 4 4 5 3 2 2 1 1 2 2 2 1 1
0 0 2 4 4 3 3 5 1 3 3 7 7 5 2 3 2 4 5 8 7 6 6 5 6 7 6 5 5 5 6 7 7 6 6 5 6 7 8 8 9 8 8 9 8 7 8 8 7 4 5 4 5 6 6 6 7 7 5 7 8 8 7 7 8 7 7 6 5 5 7 5 4 5 3 3 3 4 2 1 1 2 2 3 3 1 1 1 1 2 3 3 2 2 2 1 1
2 3 5 6 5 6 4 4 4 2 3 7 7 3 2 3 2 2 6 8 6 6 6 5 5 4 4 4 5 5 5 6 5 6 8 9 7 7 9 8 9 9 8 9 7 8 8 8 7 6 2 1 5 7 7 8 8 7 10 9 8 9 9 8 9 7 6 6 7 7 6 7 7 6 7 6 6 6 5 6 5 4 4 3 2 2 4 4 2 3 3 3 4 5 4 2 2
1 3 7 6 6 6 3 2 2 2 2 3 4 2 5 5 5 5 5 6 6 6 6 4 4 4 3 4 4 4 5 5 5 6 6 5 6 6 7 8 8 8 6 7 8 8 8 8 7 8 7 8 9 9 10 9 8 10 10 9 8 8 8 8 8 7 8 7 7 8 9 9 8 7 8 7 7 6 6 7 5 5 5 4 4 5 5 4 3 3 5 4 4 1 2 2 1
1 2 3 9 5 5 4 1 1 3 3 2 3 6 3 6 4 5 5 7 7 5 4 3 2 2 3 3 3 4 4 4 6 6 6 6 6 6 7 7 8 7 6 6 8 8 7 5 6 7 9 11 11 10 9 8 9 9 7 7 7 7 7 7 8 7 6 6 7 8 9 10 9 8 7 7 7 6 6 7 6 5 3 4 4 3 3 4 3 4 3 3 3 2 2 3 3
4 1 2 4 5 1 3 3 4 3 2 3 4 6 1 5 7 4 4 6 7 5 4 3 2 2 2 2 3 4 5 5 5 6 6 6 6 5 6 6 7 6 5 6 7 7 8 7 6 7 8 9 10 10 10 9 8 7 8 8 8 9 8 8 7 7 7 7 7 8 9 9 10 10 8 7 8 7 7 6 7 5 5 5 4 4 4 4 4 4 3 2 2 3 3 3 3
1 4 4 2 3 1 1 4 2 3 3 1 4 7 4 5 8 5 2 5 4 5 4 3 2 2 2 1 2 3 4 4 5 6 7 6 6 5 6 7 7 7 7 6 6 7 8 9 9 9 10 11 11 10 9 9 10 10 10 9 9 9 8 8 8 8 8 8 8 8 10 10 10 9 7 7 8 8 8 8 7 6 6 5 5 5 5 5 4 3 2 1 2 2 2 2 2
1 4 6 4 1 3 6 3 2 2 2 1 5 5 4 3 6 5 2 5 6 6 3 3 2 2 2 2 2 2 3 3 4 6 8 6 5 6 5 6 6 7 6 7 7 7 8 8 7 10 11 11 11 11 12 11 10 11 10 10 10 9 8 8 8 8 8 8 8 9 10 10 11 10 9 9 9 9 8 8 8 8 7 6 7 6 6 6 4 3 2 3 3 3 2 1 0
4 2 5 2 5 1 3 3 2 2 3 3 2 5 4 4 8 5 2 3 6 6 5 4 3 2 2 2 2 2 2 3 4 6 7 7 5 6 5 5 6 6 5 6 6 6 6 7 7 8 9 9 8 8 9 9 10 10 10 9 10 10 10 8 8 8 8 8 8 9 9 8 9 11 11 10 9 9 10 11 9 8 7 7 6 7 7 6 5 4 4 4 5 3 3 3 3
2 4 3 6 5 8 8 3 2 2 2 5 2 7 10 6 7 7 3 2 5 6 5 5 4 4 3 2 2 2 2 3 4 5 6 6 6 5 5 5 5 5 5 6 6 6 6 7 6 7 8 9 10 11 11 11 10 10 9 9 10 10 9 9 8 8 8 8 9 9 9 8 9 10 10 9 9 8 7 7 6 6 4 5 5 5 5 4 5 5 5 5 4 4 3 3 3
1 3 4 4 7 5 4 4 2 3 5 7 8 9 11 6 10 8 4 4 7 5 4 4 4 3 3 3 2 2 2 4 3 4 4 4 4 5 4 4 4 4 5 5 6 7 7 7 6 6 6 6 7 7 7 7 7 8 8 8 11 10 9 9 9 9 8 9 9 9 9 9 9 9 9 9 9 7 7 8 8 8 8 8 8 9 8 7 7 6 6 4 3 2 4 4 5
5 2 1 6 6 10 4 1 2 1 3 10 12 11 13 14 9 9 6 5 5 5 7 6 6 5 4 3 3 2 2 3 2 2 3 4 4 4 3 3 4 5 5 6 6 7 7 5 6 7 6 5 4 6 6 7 8 7 8 9 9 7 8 9 9 9 9 8 9 10 10 9 10 10 11 10 10 10 9 8 9 9 9 9 9 9 8 8 7 5 4 6 7 7 7 8 8
4 4 5 7 4 11 1 2 3 1 4 6 1 8 13 15 13 6 6 6 9 10 9 7 7 6 4 4 4 3 3 2 1 2 3 3 3 3 3 3 5 6 6 6 7 7 7 7 8 6 5 6 7 7 6 8 7 6 7 7 8 7 7 8 9 8 8 8 9 9 9 9 10 10 9 9 9 8 8 8 8 8 7 7 8 8 9 9 10 9 5 5 6 6 7 8 8
3 7 4 5 9 5 5 2 1 2 4 10 2 8 13 13 13 6 7 8 3 3 3 4 6 6 5 4 4 5 5 4 3 3 2 2 3 3 3 4 5 5 5 5 6 6 7 7 7 6 6 6 7 6 7 8 8 8 8 8 8 9 8 8 9 8 8 9 9 10 9 9 9 9 9 9 7 8 8 8 7 7 7 6 7 9 9 10 9 9 9 7 4 6 6 8 9
6 5 6 9 2 1 5 4 2 2 4 2 2 7 11 15 14 8 5 5 3 2 2 2 3 5 6 6 5 6 6 6 6 4 4 3 3 3 3 4 4 3 4 5 5 6 5 7 6 7 7 7 8 9 11 11 11 11 11 10 9 9 9 9 10 9 10 10 11 10 10 9 10 10 10 9 9 9 9 8 7 8 8 8 8 8 9 9 9 9 9 9 6 6 7 8 9
8 9 8 9 7 8 9 2 0 3 4 1 6 10 12 13 15 7 5 3 3 4 4 4 3 2 3 3 4 4 6 7 6 6 4 4 4 4 4 3 3 4 4 4 4 4 4 7 7 7 8 9 8 10 11 10 10 11 10 10 10 10 8 8 9 10 9 10 10 10 9 10 10 10 10 10 9 10 10 9 9 8 9 8 8 8 9 9 8 8 9 8 9 6 6 6 7
5 9 13 13 9 10 5 1 4 6 6 6 4 7 7 3 4 5 4 3 5 4 6 6 6 6 6 7 6 5 4 3 5 5 4 3 3 4 4 3 4 4 5 4 4 4 5 6 6 7 8 7 7 7 6 5 7 8 8 8 8 7 8 7 8 8 8 8 8 7 9 9 9 9 9 10 10 9 9 9 9 8 9 8 8 8 8 8 9 9 9 8 9 8 6 7 6
5 5 13 14 12 6 2 4 3 6 7 2 3 7 7 3 4 5 3 4 6 5 6 7 6 6 6 5 6 6 6 6 4 3 4 4 4 4 4 4 3 4 4 3 3 4 5 6 6 7 7 6 5 6 6 6 7 7 8 8 7 7 9 7 6 6 7 7 7 8 8 9 9 10 10 10 9 9 9 9 9 9 9 8 8 8 9 9 8 8 8 8 8 7 7 7 7
6 2 4 8 8 7 10 9 9 7 4 2 2 4 8 10 9 3 3 4 6 7 8 7 7 6 6 6 5 6 6 7 7 7 6 4 4 4 5 3 3 3 3 3 4 4 6 6 7 7 6 6 6 5 7 6 8 8 9 9 8 9 9 9 7 6 6 6 8 8 8 8 9 9 9 10 10 9 9 9 9 9 9 8 8 8 8 8 7 8 9 8 8 7 8 7 7
1 2 2 5 6 7 6 6 6 3 3 7 8 5 5 8 3 3 2 7 9 11 11 10 9 9 9 8 7 7 7 7 7 7 7 6 5 4 3 4 3 3 2 3 4 5 6 7 8 8 8 8 7 8 8 8 8 9 9 9 11 8 9 8 6 6 6 6 9 8 8 8 8 10 10 9 10 10 9 9 9 9 9 9 8 8 8 8 9 9 9 8 8 7 7 7 6
3 5 8 7 6 5 3 4 4 3 4 10 10 10 7 13 6 5 3 4 9 7 11 12 13 12 11 9 8 7 6 5 4 5 5 4 3 2 2 2 3 3 2 3 5 6 6 7 9 10 10 8 8 9 10 10 9 7 8 9 13 9 7 7 6 7 7 6 9 8 8 8 7 8 9 10 10 10 10 9 9 9 9 8 7 7 7 8 7 7 7 7 7 7 6 6 6
10 6 8 5 5 3 3 1 2 1 9 11 10 14 11 9 5 8 7 6 1 5 4 8 10 10 10 9 9 7 6 6 5 5 5 4 3 3 2 3 3 3 2 4 4 5 6 8 9 11 10 9 9 10 10 10 8 8 8 9 11 11 9 8 8 7 7 7 8 8 8 7 7 7 7 7 9 8 8 8 8 8 7 7 7 7 7 6 6 5 5 6 7 7 5 5 5
6 4 5 5 2 2 2 1 2 5 9 4 1 7 15 12 3 7 4 5 2 4 8 12 13 13 12 10 9 8 8 7 7 7 7 6 5 4 4 5 5 4 4 4 4 5 6 7 9 12 10 10 9 9 10 9 9 9 9 9 10 9 8 7 8 9 7 8 7 7 6 6 6 6 6 6 7 7 6 7 7 7 7 7 7 6 5 5 5 5 5 5 5 5 6 5 5
3 6 7 6 3 1 5 3 5 10 8 2 2 4 2 16 10 3 3 1 4 2 3 7 13 13 12 11 10 9 8 8 8 7 7 7 7 7 7 6 6 6 5 5 5 5 6 8 9 12 11 9 9 9 10 10 9 8 8 9 8 7 8 8 8 8 6 6 6 6 6 6 5 6 6 6 7 7 5 6 6 6 5 6 5 5 5 5 4 4 5 5 5 6 5 5 5
7 11 10 8 7 5 6 5 2 4 1 1 2 2 7 3 9 14 10 5 4 4 2 4 6 11 12 11 10 9 8 8 7 7 7 7 7 7 7 7 6 6 6 5 5 5 5 7 8 12 11 9 9 10 10 11 9 8 8 8 8 7 7 7 7 7 6 5 5 6 6 6 6 6 5 6 4 5 5 5 5 5 5 5 5 5 4 4 4 4 4 4 4 4 3 3 3
12 6 10 8 7 4 6 6 7 3 1 3 1 4 4 6 3 4 2 2 2 2 1 1 1 7 10 10 9 8 9 7 7 7 7 8 8 8 7 6 6 6 7 6 5 6 6 7 8 11 12 9 10 10 10 11 9 9 8 7 7 7 7 6 6 6 6 6 6 6 6 5 5 5 5 4 4 5 5 5 5 5 5 5 4 4 3 4 4 3 3 4 3 4 4 4 3
4 0 4 1 9 1 6 2 1 1 1 3 3 5 1 5 3 2 1 1 1 2 2 3 5 7 9 9 10 10 9 9 8 8 8 8 7 7 6 6 6 7 8 6 7 6 6 7 8 9 12 10 9 10 9 10 9 8 8 8 8 7 6 6 6 5 6 6 6 6 6 5 5 5 4 4 4 4 4 4 4 4 4 4 4 4 4 3 4 3 3 3 3 2 3 4 3
7 5 8 6 4 4 3 2 3 1 1 9 6 5 5 4 3 3 3 3 5 3 4 5 6 9 10 10 11 11 10 9 9 9 8 8 7 7 7 7 6 7 7 7 7 6 8 8 9 10 10 9 10 10 10 9 9 10 8 8 7 7 7 7 7 7 7 6 6 5 6 5 5 4 4 3 3 3 3 3 3 3 3 3 3 3 3 3 3 2 3 2 3 3 2 2 2
10 7 9 3 0 4 2 8 2 3 8 5 6 11 7 7 6 5 4 5 7 7 7 6 7 9 12 12 12 13 12 10 9 8 8 8 8 9 8 6 7 7 8 7 7 6 6 6 9 11 10 12 9 10 10 9 10 9 9 8 7 7 7 7 7 7 6 6 6 5 4 4 4 3 3 2 3 3 3 3 3 3 3 3 3 3 3 3 3 2 2 2 3 4 3 3 2
3 2 4 8 6 5 6 1 7 5 6 5 6 7 9 10 8 5 8 10 11 11 8 7 9 11 13 12 13 11 10 9 10 11 10 10 10 10 9 9 7 7 7 7 7 6 6 6 7 8 11 10 11 8 8 8 8 7 6 8 8 7 7 7 6 6 5 6 6 5 5 4 4 3 3 3 3 3 3 3 3 3 3 4 4 4 4 4 4 4 4 3 4 4 4 4 3
0 2 4 3 2 5 7 7 2 1 8 1 3 6 7 9 9 14 13 13 13 11 9 12 13 14 12 13 14 14 13 12 11 11 10 10 10 10 10 10 10 9 8 7 8 7 8 7 8 8 8 9 9 10 9 9 7 7 8 8 7 7 7 7 7 6 6 6 6 6 5 5 4 3 4 4 4 4 4 4 4 4 4 4 5 4 5 5 4 4 4 4 5 5 5 5 4
6 7 9 4 3 3 4 2 5 4 4 5 7 6 3 8 7 12 14 12 10 13 14 11 11 13 14 14 13 13 12 12 11 11 11 11 11 10 9 9 8 8 7 7 8 8 8 7 8 9 12 11 10 9 9 8 8 8 9 9 8 7 7 6 6 6 6 6 5 5 5 4 4 5 4 4 4 4 4 4 4 4 4 4 4 4 4 4 4 4 4 4 4 5 5 5 5
14 15 16 17 10 6 7 9 5 2 4 6 4 10 1 3 2 2 2 0 1 6 6 7 10 12 12 10 12 13 12 13 12 11 11 10 10 9 8 7 7 8 8 9 8 8 9 9 9 9 9 9 11 9 8 9 8 8 9 9 9 7 7 6 7 6 6 6 5 5 5 4 5 4 4 3 3 3 3 3 2 3 3 3 3 3 4 3 4 4 4 3 4 5 6 6 5
Wind_Direction
307 324 296 285 258 269 249 8 225 95 240 86 116 224 84 289 322 262 140 194 173 70 358 325 285 205 311 13 353 341 338 356 22 2 55 55 58 46 204 153 82 132 153 156 167 161 174 167 184 151 155 158 159 158 152 152 150 146 147 143 142 138 134 134 132 130 127 122 118 116 120 120 117 108 101 91 87 82 76 74 77 89 94 87 84 82 76 70 69 64 58 54 50 47 43 41 39
305 311 271 249 250 262 166 314 22 144 114 134 81 302 85 74 231 70 82 49 31 56 355 292 267 283 290 290 290 274 179 286 346 33 71 52 25 69 36 205 82 161 157 155 167 167 170 163 168 147 155 155 159 158 155 153 154 151 150 146 144 140 138 136 137 134 134 126 122 123 125 124 119 108 99 100 86 77 76 82 85 93 93 89 87 84 80 74 70 65 57 54 50 46 45 43 39
326 312 221 224 206 9 114 268 211 143 153 114 116 66 137 184 85 95 53 36 21 358 325 263 293 234 222 218 199 318 82 315 302 122 335 72 226 67 24 211 195 189 163 159 167 169 172 165 155 151 154 155 159 159 157 156 157 154 154 150 146 142 140 140 146 142 138 131 127 126 127 127 122 116 107 100 92 81 77 76 81 86 87 91 89 83 79 78 78 70 61 56 51 46 41 41 42
274 346 302 249 139 247 236 195 115 187 119 75 124 120 219 55 83 25 3 9 349 317 236 181 239 82 290 77 31 267 56 79 26 358 84 29 7 339 345 184 177 184 163 165 170 169 181 133 167 152 153 155 158 158 157 159 161 157 158 155 150 147 144 149 147 146 141 134 132 129 129 129 127 119 106 101 97 86 83 84 85 90 89 87 85 79 75 73 75 73 66 57 53 49 43 40 39
238 3 313 241 250 107 329 45 64 249 131 170 99 132 183 248 29 11 63 355 344 263 277 27 232 132 357 325 317 333 36 69 72 7 30 92 5 347 327 139 197 167 165 170 169 172 172 130 158 164 156 153 160 158 159 159 161 160 160 160 154 152 151 150 154 150 143 141 137 134 133 133 127 122 112 112 104 100 91 88 97 99 90 89 87 77 71 73 74 71 64 59 53 50 44 41 39
215 273 30 297 327 33 193 174 155 85 49 358 122 86 76 35 354 8 341 44 78 274 344 280 359 30 160 84 349 359 3 350 350 75 325 64 348 348 116 156 195 163 160 170 171 179 177 138 161 167 163 157 157 161 158 159 163 163 165 161 157 157 156 151 152 151 152 149 142 146 143 142 139 134 133 127 127 119 111 104 105 106 110 92 76 69 62 75 73 70 61 57 56 52 50 43 40
338 224 63 96 117 246 277 117 112 110 82 321 70 101 68 58 346 311 89 172 146 155 246 0 266 238 162 59 186 43 32 348 305 13 343 325 340 32 84 94 158 148 149 164 175 177 174 133 160 148 156 157 157 154 160 162 165 167 168 162 162 161 160 159 156 161 161 156 149 152 155 151 159 152 138 136 138 135 130 119 116 116 111 77 60 69 69 63 70 59 62 60 57 56 55 50 43
135 260 29 247 77 271 120 105 104 3 117 275 354 318 49 22 332 260 63 263 82 279 91 144 264 307 65 270 59 84 86 26 344 350 347 355 8 80 41 26 114 128 141 147 173 188 112 140 153 136 109 162 156 153 165 166 166 168 166 167 166 165 167 171 160 158 172 159 165 159 164 163 162 152 140 144 149 145 139 128 123 115 90 77 67 60 60 76 77 81 69 66 63 61 57 53 47
13 9 196 228 144 67 145 132 92 4 94 211 242 260 304 319 284 288 143 10 168 276 318 15 6 267 55 143 60 91 62 8 51 39 20 23 29 25 15 22 44 97 135 139 159 186 188 137 178 145 112 153 159 172 171 171 165 171 169 174 171 170 174 175 162 163 174 175 169 162 171 169 170 158 150 151 155 148 143 133 133 118 100 89 80 66 49 58 89 78 75 70 69 65 61 54 49
97 315 146 38 13 158 156 139 180 113 23 61 310 0 321 166 231 261 315 152 41 284 51 348 297 37 327 100 116 70 27 12 23 33 15 19 25 42 38 22 28 84 136 169 169 183 195 113 183 167 150 124 165 172 183 176 177 172 178 180 178 175 175 171 171 166 183 179 169 172 178 180 168 171 161 158 157 153 152 144 139 126 108 95 80 71 59 71 89 83 76 73 71 68 65 60 52
144 63 357 199 181 152 201 152 124 146 193 0 254 272 285 246 258 252 294 8 344 346 67 198 177 54 252 86 47 96 185 29 27 12 1 4 33 39 53 33 29 25 107 161 174 184 193 202 143 234 170 165 145 176 177 191 188 180 178 184 195 185 173 169 173 170 177 181 176 169 187 194 175 177 172 157 163 159 157 151 146 128 96 86 77 67 45 98 98 84 74 71 67 67 66 65 60
193 15 231 200 193 235 158 156 136 112 110 186 128 113 85 218 225 218 168 184 91 154 44 273 40 288 137 157 131 107 57 28 21 6 359 1 44 52 46 53 38 43 70 129 166 190 198 194 200 171 278 223 173 186 176 182 198 185 178 185 195 184 185 181 168 160 166 168 143 154 184 212 193 179 170 154 181 169 159 145 150 128 105 89 75 55 58 96 90 83 77 70 65 59 62 64 64
50 279 160 205 88 241 65 192 125 80 149 161 116 99 211 236 258 13 7 337 183 208 113 17 14 258 245 139 99 221 35 19 9 359 359 17 47 65 69 67 52 49 56 67 120 167 203 219 211 208 199 204 238 259 213 177 192 187 177 179 184 187 178 178 167 155 150 139 135 134 153 174 144 156 191 171 164 159 151 147 130 129 114 90 75 79 81 85 87 85 78 69 62 56 54 55 58
329 325 242 190 359 138 181 105 105 185 159 107 80 30 203 258 54 314 302 307 111 13 44 10 254 321 261 234 147 187 30 0 353 350 354 30 68 72 67 72 63 54 43 34 50 18 274 233 243 224 209 212 213 179 196 227 185 192 177 175 172 173 171 165 152 145 143 135 133 115 111 111 133 143 145 165 143 122 91 155 156 137 130 99 95 92 93 94 90 86 79 71 65 60 56 55 53
98 240 77 108 128 203 126 203 173 194 126 141 76 323 246 199 313 257 324 333 62 36 74 267 336 283 75 321 102 21 345 335 337 334 351 67 79 70 62 75 79 65 54 43 37 30 342 262 231 234 232 223 221 219 214 188 206 190 188 169 172 167 163 156 148 141 128 128 124 118 119 128 128 130 129 150 158 151 208 162 126 104 127 107 108 104 102 101 96 87 82 75 67 60 59 59 57
90 186 102 155 153 217 150 214 9 207 131 165 67 304 253 125 215 217 60 333 346 124 273 90 113 351 13 326 5 338 333 327 326 310 22 73 88 77 70 55 63 63 54 42 35 18 353 318 280 247 231 224 221 225 223 218 170 207 187 163 180 181 163 147 137 140 128 122 119 125 124 125 129 128 127 139 150 169 177 245 122 122 153 130 123 115 109 105 102 93 83 75 71 66 64 63 58
204 270 175 140 168 222 139 195 169 180 109 126 6 258 265 148 146 290 312 247 269 73 327 50 62 12 53 27 346 331 333 326 328 314 60 45 21 64 46 34 20 59 34 40 30 16 352 337 299 256 247 230 226 227 229 228 197 169 193 178 176 181 166 154 147 130 123 118 136 130 151 196 212 168 166 194 162 183 154 252 152 125 154 143 133 118 114 113 106 96 88 86 83 84 84 82 66
249 188 182 176 56 203 147 181 165 31 132 134 153 1 317 253 352 117 203 207 226 258 231 91 81 76 79 83 13 351 349 8 18 40 40 44 22 27 28 21 13 14 10 9 26 15 358 346 333 303 249 248 235 227 229 223 214 187 213 197 192 180 168 170 172 202 192 188 141 166 221 227 226 227 230 188 214 189 168 175 155 138 150 155 142 121 121 121 114 108 115 110 110 100 183 117 105
347 131 268 36 180 50 230 77 143 166 93 95 113 197 284 342 304 81 295 169 175 301 129 139 124 116 102 63 34 22 21 34 34 41 43 39 29 27 20 7 9 5 5 357 1 3 359 340 328 315 302 248 251 237 225 227 230 219 225 228 215 201 198 200 224 214 225 230 225 231 234 231 236 237 245 94 331 27 141 178 187 161 170 152 130 128 134 133 125 125 131 133 125 156 182 70 56
67 277 112 90 152 66 242 204 152 232 98 148 185 165 259 8 231 2 274 310 210 173 136 159 166 139 77 54 34 18 33 41 42 42 44 40 33 24 17 9 3 5 352 346 337 349 354 343 336 312 302 284 234 243 240 224 223 225 224 224 233 232 214 208 214 219 211 208 229 238 238 227 235 245 107 122 103 225 150 128 112 29 190 138 138 140 139 134 133 137 138 134 151 177 53 42 38
109 250 65 110 143 206 143 210 248 157 264 301 279 142 251 146 279 292 326 298 188 127 47 359 4 45 76 59 34 21 31 38 38 39 40 39 35 30 16 5 353 340 343 320 339 346 351 343 337 317 309 304 261 232 237 232 228 223 223 230 231 258 253 249 231 217 216 205 213 231 229 217 221 230 220 209 219 219 206 189 138 128 127 125 161 162 174 158 175 149 143 166 137 148 111 60 18
192 23 56 109 139 230 122 154 92 179 260 227 129 264 334 76 236 241 252 272 298 82 44 38 66 64 51 39 29 31 37 37 34 34 32 29 21 16 7 358 350 336 344 345 348 343 350 340 332 322 297 255 255 217 223 224 233 229 219 218 225 237 210 309 292 246 231 220 215 223 222 218 224 225 220 220 212 214 220 219 206 176 165 142 269 210 212 213 240 166 123 141 154 137 116 100 55
248 140 233 224 174 298 117 156 172 180 167 201 236 272 115 214 259 227 249 262 69 26 40 63 69 70 71 55 47 50 44 39 32 29 20 21 14 11 4 356 353 352 349 355 347 345 344 341 335 320 285 239 237 197 205 215 222 217 215 217 239 235 192 205 202 255 282 287 276 250 243 238 229 232 226 217 219 222 222 218 204 200 196 184 178 209 225 235 228 126 227 141 131 134 122 116 112
287 66 165 181 188 232 132 181 139 205 196 227 258 90 237 187 264 107 231 78 90 81 76 81 79 79 72 61 47 49 46 41 38 28 18 15 7 2 354 348 348 342 351 353 351 344 349 343 339 322 270 214 195 179 187 195 211 217 151 185 200 241 337 20 23 23 338 259 276 335 341 290 260 233 226 223 222 223 235 227 202 197 202 195 185 179 159 126 5 327 281 128 131 123 121 127 127
214 225 164 117 228 244 233 218 203 204 231 165 149 233 243 218 258 138 212 111 113 107 92 83 88 83 67 60 51 46 43 38 34 30 26 13 4 354 4 353 351 358 359 355 344 342 333 324 337 354 192 200 189 167 170 169 179 179 197 246 318 28 350 50 74 61 23 347 136 91 2 350 332 264 233 215 220 220 227 219 205 212 190 144 163 177 180 178 181 182 249 195 148 153 162 178 165
215 57 167 171 235 236 241 246 236 220 217 185 191 235 242 212 69 244 139 124 120 115 92 73 82 65 50 48 45 42 41 34 22 20 10 2 1 5 13 5 359 8 357 348 344 339 326 325 352 40 122 156 150 157 149 160 171 178 152 50 70 55 33 26 55 50 39 30 14 19 57 24 351 308 261 236 224 228 230 213 220 175 184 187 196 197 190 184 184 184 196 186 171 179 198 172 203
322 279 253 276 294 305 207 234 165 137 226 175 226 253 186 91 220 205 105 130 137 118 91 71 73 70 52 44 42 40 45 34 22 2 11 12 16 12 4 3 8 359 353 353 346 337 325 333 1 47 122 149 146 151 126 75 72 51 63 71 59 60 60 54 59 51 51 39 17 16 49 42 20 5 6 324 256 228 212 193 50 11 346 340 298 275 95 133 92 44 24 355 312 229 210 138 272
56 313 272 237 244 245 226 242 270 206 220 192 228 241 73 123 209 345 120 141 153 123 101 91 88 106 109 84 55 40 40 34 24 21 19 14 10 2 2 1 353 352 358 351 340 327 334 343 0 29 44 100 78 106 95 78 74 76 74 72 71 71 72 66 64 54 52 46 38 35 42 48 44 43 54 55 44 33 50 65 50 41 32 13 346 14 37 43 66 75 69 45 5 348 347 14 4
16 311 303 308 284 277 109 320 90 261 133 193 186 183 208 178 210 92 108 144 157 128 114 106 107 107 105 91 80 61 47 37 33 35 23 13 3 2 1 4 353 345 351 340 338 340 347 356 8 22 59 67 70 68 76 76 73 69 66 67 66 65 65 68 64 59 60 51 45 46 49 51 49 50 60 67 64 60 56 66 70 58 49 33 34 48 57 52 51 56 58 65 56 307 335 6 9
218 149 338 301 282 265 76 173 166 256 110 160 187 257 170 181 150 110 127 160 160 150 129 122 109 104 81 79 84 77 55 48 44 34 21 9 3 3 1 4 -0 353 341 343 349 359 348 2 39 46 56 68 68 66 69 72 69 77 78 66 64 69 58 61 60 52 49 50 46 39 54 55 55 49 53 52 66 60 61 61 57 59 69 79 66 67 69 53 44 39 49 69 62 359 337 14 345
284 44 229 282 305 258 116 24 334 260 104 177 231 268 163 137 150 93 118 164 179 183 147 148 124 93 79 70 76 78 68 51 45 40 29 20 6 6 2 8 5 2 352 354 360 346 353 31 50 65 60 72 77 78 72 71 70 71 71 68 62 60 56 60 60 54 49 51 51 48 44 55 60 57 52 59 64 69 62 56 52 44 37 48 70 78 86 79 68 57 28 28 42 36 36 34 10
353 281 227 147 241 119 106 89 7 285 107 193 233 265 271 139 155 110 94 197 224 217 161 141 115 99 94 90 87 87 77 69 62 49 33 21 15 3 7 8 6 5 5 352 345 359 20 36 56 70 67 64 63 68 70 74 72 70 68 66 66 64 64 60 53 48 46 44 46 47 41 42 48 51 53 63 71 65 66 65 59 54 61 74 74 74 83 87 88 76 50 138 129 99 85 60 26
74 227 273 255 211 291 302 109 14 357 330 132 235 281 100 193 160 123 91 193 209 209 168 154 142 140 148 111 98 100 110 93 67 46 29 15 17 7 9 10 12 6 3 358 359 10 32 24 21 63 67 72 73 73 73 72 71 68 67 65 65 63 63 61 55 48 47 43 41 43 38 41 43 41 45 53 68 64 61 61 60 58 52 64 70 55 57 65 71 75 58 9 46 87 65 84 93
220 139 258 284 258 249 250 109 138 4 302 210 171 253 251 75 161 151 105 183 194 205 179 174 181 169 140 132 130 106 94 77 51 29 16 14 7 8 15 17 15 10 6 10 10 29 36 28 30 44 64 68 74 70 71 75 74 75 73 69 66 62 56 55 56 52 46 43 40 36 26 36 41 42 41 48 61 60 66 70 67 53 57 59 51 62 59 53 64 61 58 33 21 23 46 23 1
183 184 228 253 210 230 268 279 71 282 162 273 244 253 258 193 176 185 135 185 208 207 184 184 180 174 161 151 128 92 83 74 51 27 9 5 4 9 15 17 21 17 19 16 23 31 51 44 45 38 60 75 78 81 81 80 78 75 74 71 65 60 55 50 49 50 46 45 41 34 32 35 32 41 44 43 52 50 55 55 51 46 48 54 51 54 57 53 60 47 55 56 53 48 56 29 344
290 201 260 295 282 241 211 226 65 340 277 267 251 262 271 226 188 186 161 175 208 189 165 177 183 176 169 161 123 112 84 77 50 28 8 11 11 4 10 19 35 35 32 24 42 47 57 65 67 55 45 70 86 85 83 81 76 71 70 67 65 56 55 54 50 48 46 46 38 39 42 45 41 40 43 49 56 52 50 45 42 35 37 43 43 38 34 31 33 49 49 48 67 99 50 15 358
84 98 250 264 277 274 103 181 62 314 278 253 263 267 270 268 242 198 165 155 189 183 195 191 187 180 180 156 141 118 90 67 33 26 29 22 19 10 14 24 44 58 41 40 58 56 51 58 69 59 36 36 77 91 85 84 83 81 69 65 74 65 62 62 59 52 50 46 41 45 45 44 39 42 39 43 47 51 49 46 47 47 47 49 49 47 39 34 29 31 53 46 40 48 36 15 2
244 253 247 260 214 269 117 131 88 85 244 275 157 271 264 269 267 172 151 176 210 203 203 196 180 182 162 161 150 148 110 114 144 109 66 53 36 24 38 44 38 62 38 43 54 58 62 63 68 66 50 52 56 66 75 69 57 61 80 74 78 68 66 65 68 56 55 51 47 46 46 45 46 46 44 50 54 58 61 59 54 51 54 60 59 53 44 39 35 31 17 67 52 52 51 22 12
183 247 246 258 259 280 265 162 153 188 186 261 284 267 267 264 266 156 188 199 196 197 220 197 180 174 171 164 158 150 158 159 148 122 103 103 67 56 64 61 60 57 57 54 57 68 66 68 68 70 68 69 62 67 76 78 74 70 82 84 86 84 69 73 75 70 61 57 50 46 45 44 45 47 46 44 47 48 57 60 56 56 53 53 60 54 47 44 36 33 29 22 49 57 54 38 29
226 206 226 237 248 211 262 116 104 176 235 322 8 290 278 272 260 229 136 175 170 145 203 174 210 184 179 172 167 166 165 163 163 155 145 118 99 89 74 67 61 65 76 71 61 71 72 74 75 81 80 77 74 71 81 82 85 86 82 89 87 87 91 84 81 73 65 61 55 50 48 48 47 50 45 48 51 49 50 55 56 53 51 49 54 56 47 43 35 33 31 31 22 49 39 45 36
213 221 229 246 221 225 239 295 180 131 232 323 284 279 270 253 252 219 124 138 167 172 161 178 173 176 146 142 165 185 170 164 157 158 153 144 124 85 70 61 58 72 66 58 52 64 76 80 81 85 84 81 85 90 91 97 100 96 99 98 98 97 89 83 79 66 63 62 61 49 45 45 47 51 49 47 49 50 49 50 51 51 51 47 53 58 55 45 40 37 33 41 33 36 48 44 45
201 210 223 233 240 251 207 355 305 265 254 172 222 290 264 224 234 252 122 176 198 176 198 191 180 180 184 187 180 169 166 162 161 157 145 127 104 102 91 77 69 70 63 43 39 60 83 91 92 92 89 86 86 84 94 108 108 113 117 110 102 90 79 67 68 78 73 68 68 66 54 49 50 51 50 50 49 51 52 49 50 52 51 48 48 53 52 48 38 36 30 33 38 32 45 45 43
232 226 203 229 243 247 200 196 155 255 258 75 298 238 279 165 233 181 182 205 207 155 215 198 187 192 198 200 185 178 168 161 157 147 146 138 122 118 103 86 70 76 64 56 66 73 81 85 83 84 87 87 76 83 78 94 86 81 82 83 85 89 98 81 80 81 86 84 81 73 65 53 49 53 49 48 48 48 50 47 49 50 50 49 44 48 46 44 39 32 27 35 32 28 32 52 40
228 71 174 207 222 214 223 209 213 259 58 104 208 251 273 270 251 117 137 225 221 211 206 206 199 195 202 204 196 185 175 169 162 157 150 137 137 134 125 108 99 86 94 99 94 90 88 88 89 87 85 86 83 90 83 84 95 95 98 96 92 91 92 101 90 82 79 83 82 74 70 61 51 49 50 47 45 43 45 46 45 47 49 45 44 46 42 34 36 34 31 30 33 33 30 38 38
318 51 194 174 202 216 196 205 223 265 349 257 178 181 276 261 214 102 188 264 233 223 201 195 197 195 197 201 198 191 183 173 163 156 153 150 146 138 128 120 104 111 109 112 110 106 102 99 97 96 94 92 92 92 95 90 95 101 103 109 101 95 99 100 97 91 83 79 78 71 68 64 58 51 47 46 42 42 43 44 41 43 43 39 40 42 41 36 37 34 27 28 30 34 35 28 35
106 118 87 82 81 69 175 205 218 205 235 246 194 174 245 271 214 213 143 247 254 222 181 183 193 188 191 195 192 187 175 162 154 138 131 126 120 106 72 90 114 106 110 117 118 118 115 111 107 103 99 98 100 100 100 96 98 107 106 108 110 111 108 105 100 93 86 78 73 68 65 61 54 51 45 41 42 41 41 40 42 43 43 41 42 42 38 40 36 38 34 33 27 36 34 35 35
125 159 108 97 83 96 93 78 191 244 243 242 195 182 210 280 179 203 208 222 185 117 143 176 174 179 188 191 184 179 173 165 156 143 132 119 96 97 132 148 128 122 124 130 122 122 117 114 114 105 104 104 103 102 104 105 104 104 107 109 108 113 112 111 107 94 88 82 77 70 68 63 56 54 49 44 41 38 43 42 44 44 43 42 41 38 36 35 33 34 34 35 37 31 27 28 34
162 158 152 128 105 150 177 145 206 235 258 101 69 207 198 228 218 217 198 89 144 163 177 176 177 182 183 181 179 175 172 167 157 153 151 146 145 152 169 162 157 143 137 130 128 124 119 117 117 109 105 106 105 109 111 107 102 100 100 104 104 105 109 105 100 96 88 86 82 83 79 74 65 60 54 50 41 36 41 43 43 46 43 40 41 37 31 27 29 32 33 33 32 31 25 25 28
209 155 164 188 213 127 219 166 221 209 249 95 93 131 191 239 243 344 345 134 142 194 26 188 181 177 175 174 171 169 172 167 167 164 158 162 166 168 178 171 161 160 152 144 136 127 119 117 121 115 111 115 115 117 112 110 106 102 102 100 97 94 93 96 97 96 91 90 88 86 82 78 73 65 53 55 45 37 41 45 42 41 42 41 39 38 36 28 29 39 40 41 39 32 29 23 30
191 185 181 190 217 204 250 203 282 303 175 101 72 166 251 353 248 245 263 93 71 64 72 352 184 170 166 167 169 171 175 175 170 166 164 168 172 177 182 177 171 156 151 146 141 133 128 125 128 119 120 123 122 117 114 109 102 103 103 104 105 105 100 98 97 98 94 91 89 85 81 79 75 70 64 59 50 44 50 50 51 51 47 43 38 37 34 29 24 37 39 35 35 31 23 22 36
198 203 186 206 190 175 214 194 223 247 26 88 255 162 233 174 195 18 353 350 56 65 33 39 66 147 153 158 160 165 175 178 170 171 176 176 178 182 182 179 170 161 156 154 152 148 140 133 133 127 125 128 124 117 112 108 106 104 104 104 105 106 106 105 100 99 100 97 89 90 89 88 88 82 77 73 61 61 61 59 53 53 48 44 37 32 26 28 21 27 37 32 30 23 12 14 19
168 327 4 273 224 102 256 20 309 46 211 183 172 233 261 222 96 94 89 152 175 126 101 133 148 154 147 156 174 182 184 179 176 177 180 183 183 183 183 183 175 166 163 163 162 158 151 140 135 131 128 129 123 118 112 111 110 109 107 107 108 108 108 105 103 100 100 101 102 99 95 92 92 94 87 82 68 64 62 63 64 59 52 48 41 34 27 23 16 20 26 26 26 17 358 11 358
163 147 208 201 9 112 102 128 79 34 306 255 152 245 235 294 226 138 174 136 184 159 148 153 160 164 166 176 183 187 186 179 175 180 178 181 180 190 193 188 177 170 169 171 169 166 155 144 137 130 125 123 120 117 116 115 117 117 116 118 119 117 116 114 113 113 109 104 103 99 97 97 99 94 99 95 86 76 64 56 63 59 49 44 40 36 26 16 354 18 19 16 16 357 334 345 341
103 212 205 78 202 359 200 251 144 219 251 266 152 215 213 147 241 132 168 191 189 200 182 168 165 171 185 191 187 187 185 178 171 172 178 182 187 191 191 189 182 178 173 169 166 161 154 147 144 136 136 131 129 125 123 126 127 124 127 125 120 117 116 117 120 121 118 115 113 111 117 111 101 106 109 105 93 81 72 55 52 49 44 35 30 23 14 8 355 7 5 5 13 348 338 342 342
231 182 129 163 201 209 193 220 244 204 236 257 203 223 236 195 206 143 197 195 196 202 174 164 182 190 198 194 192 184 169 159 170 185 184 185 188 190 187 184 178 177 175 169 162 160 158 149 146 142 138 137 134 130 128 129 131 129 129 127 127 125 125 125 125 124 125 126 123 119 115 115 116 104 88 79 71 59 48 44 42 34 30 25 20 16 6 4 359 3 359 358 5 353 343 336 337
62 130 192 2 338 229 162 208 304 198 252 204 242 139 236 189 213 176 191 196 191 177 166 200 199 193 190 194 190 183 176 177 181 187 188 183 187 188 184 181 177 177 177 171 164 163 164 156 149 141 133 133 132 133 136 135 133 130 128 128 130 131 132 135 138 141 136 131 126 122 114 102 92 84 70 62 57 46 38 32 28 25 18 18 11 7 4 358 352 2 351 352 349 341 334 326 327
163 187 192 171 217 351 323 326 212 212 240 226 272 252 218 180 188 181 190 193 185 171 190 195 189 193 198 195 184 179 176 177 185 187 182 181 183 183 179 175 175 177 176 170 170 172 167 164 160 154 148 146 143 144 141 138 137 136 137 141 143 145 148 147 145 143 131 123 113 102 92 89 82 63 57 55 51 42 33 29 23 20 16 5 3 356 355 347 345 345 339 335 327 328 324 320 318
182 178 190 186 168 178 189 232 102 226 217 241 191 255 131 164 61 236 170 32 110 192 187 176 189 196 191 188 186 179 177 187 186 181 175 174 178 175 167 166 172 177 178 178 178 174 170 175 169 161 154 153 151 152 149 146 145 145 146 148 152 155 156 151 147 141 124 114 101 91 91 89 84 74 62 56 50 43 31 22 19 14 5 357 346 344 340 338 336 329 325 323 318 319 315 311 309